Tracking 28126 objects as of 2-Oct-2023
HD Live streaming from Space Station
objects crossing your sky now

CZ-2C DEB

Track CZ-2C DEB now!
10-day predictions


NORAD ID: 40288
Int'l Code: 2014-066C
Perigee: 691.7 km
Apogee: 949.3 km
Inclination: 97.9 °
Period: 101.2 minutes
Semi major axis: 7191 km
RCS: Unknown
Launch date: October 27, 2014
Source: People's Republic of China (PRC)
Launch site: Jiuquan Satellite Launch Center, China (JSC)

Note: This is SATELLITE DEBRIS
Your satellite tracking list
Your tracking list is empty




NASA's NSSDC Master Catalog

Two Line Element Set (TLE):
1 40288U 14066C   23274.83514892  .00002974  00000-0  11226-2 0  9993
2 40288  97.9006 109.4412 0179061 276.9867  81.0978 14.23549636463026
Source of the keplerian elements: AFSPC